Regional Weather Roundup
Issued by NWS Wakefield, VA

Home | Current Version | Previous Version | Text Only | Print | Product List | Glossary On
Versions: 1 2 3 4 5 6 7 8 9 10 11 12 13 14 15 16 17 18 19 20 21 22 23 24 25 26 27 28 29 30 31 32 33 34 35 36 37 38 39 40 41 42 43 44 45 46 47 48 49 50
000
ASUS41 KAKQ 302115
RWRAKQ

REGIONAL WEATHER ROUNDUP
NATIONAL WEATHER SERVICE WAKEFIELD VA
500 PM EDT SAT JUL 30 2016

Note: "fair" indicates few or no clouds below 12,000 feet with no
significant weather and/or obstructions to visibility. * = Denotes
station may not report precipitation (e.g., rain,snow,etc.),
thunder or fog.

VAZ042-051-052>054-056-302200-
NORTHERN VIRGINIA

CITY           SKY/WX    TMP DP  RH WIND       PRES   REMARKS
WASH NATIONAL  PTSUNNY   87  74  64 S15       29.90F HX  95
DULLES         PTSUNNY   83  71  67 SE13      29.91S
FORT BELVOIR   FAIR      86  74  68 S9G23     29.91S
QUANTICO       FAIR      84  74  71 S20       29.91F
FREDERICKSBRG*   N/A     86  74  68 S16       29.90S
STAFFORD*      FAIR      82  73  75 S8        29.95S
WARRENTON      FAIR      85  70  61 S5        29.90F
CULPEPER*      PTSUNNY   81  76  84 S6        29.91S
MANASSAS*      PTSUNNY   84  75  74 S10G16    29.90F
LEESBURG*      LGT RAIN  82  79  89 S13G23    29.91F
WINCHESTER     PTSUNNY   79  72  78 S7        29.92S
FRONT ROYAL*   CLOUDY    73  72  94 SW6       29.92R
LURAY*         NOT AVBL
$$

VAZ048-049-060>072-079>083-302200-
CENTRAL AND SOUTH CENTRAL VIRGINIA

CITY           SKY/WX    TMP DP  RH WIND       PRES   REMARKS
RICHMOND       PTSUNNY   78  73  84 SE15      29.93F
CHESTERFIELD*  CLOUDY    79  64  61 SE6       29.96R
PETERSBURG*    FAIR      80  76  87 SE7       29.95S
HANOVER        FAIR      81  71  71 SE7       29.95F
TAPPAHANNOCK*  FAIR      80  78  94 SE7G16    29.94F
QUINTON*       FAIR      79  75  87 E13G20    29.93F
CHARLOTTSVILLE FAIR      75  72  90 S10       29.92S THUNDER
GORDONSVILLE*  FAIR      78  77  97 CALM      29.91F
ORANGE*        LGT RAIN  81  75  83 CALM      29.93F
LOUISA*        PTSUNNY   86  79  79 SE7       29.91S HX  99
BUMPASS*       FAIR      83  74  73 S6        29.93S
FARMVILLE*     FAIR      85  75  70 SE6       29.91S
CREWE*         NOT AVBL
FORT PICKETT*  MOCLDY    82  81  97 SE10      29.94F
CHASE CITY*    FAIR      83  76  78 NE6       29.93R
CLARKSVILLE*   FAIR      91  73  55 W5        29.91S HX 100
SOUTH HILL*    FAIR      80  76  86 NE6       30.00R
LAWRENCEVILLE* MOCLDY    77  77  98 SE5       29.95F
EMPORIA*       LGT RAIN  73  73 100 E7        29.98R
$$

VAZ088>098-302200-
SOUTHEAST VIRGINIA

CITY           SKY/WX    TMP DP  RH WIND       PRES   REMARKS
NORFOLK        TSTM      78  75  90 S8        29.99R FOG
VIRGINIA BEACH TSTM      83  76  79 SE7       29.98S
NORFOLK NAVAL  TSTM      77  75  93 S6G17     29.99S
WEST POINT*    FAIR      79  75  86 SE13      29.96S
SALUDA*        FAIR      79  78  96 SE10      29.95F
NEWPORT NEWS   PTSUNNY   76  75  97 SE10      29.96F
LANGLEY AFB    DRIZZLE   79  77  94 SE12      29.97F
FORT EUSTIS    NOT AVBL
WILLIAMSBURG*  FAIR      79  77  94 SE13      29.96S
HR EXEC AP*    MOCLDY    75  72  88 S8        30.02S
FRANKLIN*      CLOUDY    74  72  95 E8        29.98S
US460-WAKEFLD  CLOUDY    76  73  91 VRB3      29.96R
$$

VAZ020-022-025-037-045-302200-
WEST CENTRAL AND SOUTHWEST VIRGINIA

CITY           SKY/WX    TMP DP  RH WIND       PRES   REMARKS
STAUNTON*      FAIR      87  70  56 SW10      29.93S
WAYNESBORO*    FAIR      86  67  53 CALM      29.95S
HOT SPRINGS VA NOT AVBL
LYNCHBURG      FAIR      88  71  57 VRB3      29.94F
DANVILLE       FAIR      86  73  65 N8        29.93R
SOUTH BOSTON*  MOCLDY   N/A N/A N/A W3        29.91S
MARTINSVILLE   FAIR      86  70  58 CALM      29.98S
ROANOKE        FAIR      88  70  55 W7        29.97S
BLACKSBURG     FAIR      83  71  67 W5        30.05S
DUBLIN*        FAIR      86  66  51 W9        30.03S
MARION*        PTSUNNY   81  67  63 SW7       30.09S
HILLSVILLE*    PTSUNNY   82  67  60 W6        30.05S
RICHLANDS*     MOCLDY    80  70  73 SW8       30.07F
WISE*          PTSUNNY   82  61  47 N3        30.08F
ABINGDON*      FAIR      84  68  59 W8        30.05F
$$

MDZ021>025-VAZ099-100-302200-
SOUTHERN MARYLAND AND THE DELMARVA PENINSULA

CITY           SKY/WX    TMP DP  RH WIND       PRES   REMARKS
PATUXENT RIVER CLOUDY    83  72  69 SE15G22   29.92F
BAY BRIDGE APT CLOUDY    86  70  58 SE13      29.92F
LEONARDTOWN    CLOUDY    82  72  69 SE15G22   29.94F
DOVER          CLOUDY    85  75  71 SE15      29.93S
GEORGETOWN     CLOUDY    82  68  62 S12G20    29.97F
EASTON         PTSUNNY   86  73  66 S15G22    29.98F
CAMBRIDGE      CLOUDY    82  68  61 SE13      29.94F
SALISBURY      SUNNY     81  68  65 SE6       29.98S
OCEAN CITY     CLOUDY    81  72  74 VRB3      29.96F
WALLOPS ISLAND LGT RAIN  80  72  76 SE10      29.96F
ACCOMACK*      LGT RAIN  75  73  94 CALM      29.96F
$$

NCZ012>017-030>032-302200-
NORTH CENTRAL AND EASTERN NORTH CAROLINA

CITY           SKY/WX    TMP DP  RH WIND       PRES   REMARKS
ROANOKE RAPIDS MOCLDY    77  73  88 NE8       29.95R
RALEIGH        CLOUDY    90  73  57 W3        29.93R HX  98
ELIZABETH CITY LGT RAIN  77  75  93 SW6       30.00S
AHOSKIE*       HVY RAIN  75  74  97 N6        29.98R
EDENTON*       CLOUDY   N/A N/A N/A SE8       29.97R
CURRITUCK*     CLOUDY    79  79  98 CALM      29.99S
KILL DEVIL HLS LGT RAIN  81  79  95 SE3       29.96F
MANTEO         LGT RAIN  80  80  99 S7        29.98F
CAPE HATTERAS  CLOUDY    85  80  85 S5        29.99R HX  99
TARBORO*       MOCLDY    82  75  77 SE6       29.93R
GOLDSBORO      MOSUNNY   97  69  40 VRB7      29.90R HX 102
WASHINGTON     LGT RAIN  75  74  96 E6        29.94F
GREENVILLE     CLOUDY    81  77  89 SE5       29.96S
NEW BERN       CLOUDY    77  73  87 SE7       29.96R
WILMINGTON     MOSUNNY   93  75  55 SW8       29.94S HX 104
$$

VAZ048-302200-
ELSEWHERE

CITY           SKY/WX    TMP DP  RH WIND       PRES   REMARKS
HARRISBURG PA  LGT RAIN  75  74  96 E5        29.95S
BALTIMORE      PTSUNNY   82  74  76 SE12G18   29.91F
ANNAPOLIS      CLOUDY   N/A N/A N/A CALM      29.92F
ANDREWS AFB    NOT AVBL
PHILADELPHIA   LGT RAIN  83  71  67 S13       29.98R
GREENSBORO     MOSUNNY   94  64  37 W10       29.94S HX  95
ROCKY MOUNT    MOSUNNY   95  73  48 SW7       29.92S HX 104
$$

VAZ100-302200-
MARINE

STATION/POSITION TIME  TEMP    WIND        PRES    WAVE   SWELL
                       AIR SEA DIR/SP/G            HT/PER HT/PER
                 (UTC) (F)     (DEG/KT/KT) (MB)    (FT/S) (FT/S)
BRANDYWINE LGT   2000   77     170/ 16/ 19   N/A
CAPE MAY NJ      2000   80 76  150/ 13/ 17 1014.3F
LEWES DE         2000   82 75  170/ 11/ 17 1014.8F
OCEAN-CITY-INLET 2000   79 76  170/  6/  9 1015.6F
WACHAPREAGUE VA  2000   80 87  140/  9/ 11 1015.2F
THOMAS POINT MD  2100   83 83  160/ 20/ 22 1014.3F
GOOSES REEF MD   2100   84 84  160/ 19/ 23 1013.9F   3/ 3
COVE POINT MD    2000   82     190/ 19/ 21 1015.0F
SOLOMONS ISLAND  2000   83 86  160/ 14/ 16   N/A
BISHOPS HEAD MD  2000   83     150/ 18/ 20 1015.0F
PINEY POINT MD   2000          180/ 14/ 16   N/A
POTOMAC MD       2100   82 85  170/ 17/ 21 1012.7F   3/ 3
CAMBRIDGE MD     2000   85 87  140/  6/ 13 1013.6F
LEWISETTA VA     2000   81 86  180/  9/ 12 1014.1F
RAPPAHANNOCK LGT 2000          130/ 13/ 14 1015.4F
STINGRAY PT      2000   82 86   90/ 16/ 19 1015.3F   2/ 3
YORK RVR RNG VA  2000   76     160/ 12/ 13 1014.2F
YORKTOWN VA      2000   75 85  160/ 10/ 12 1014.3F
JAMESTOWN VA     2000   76 89   80/  8/ 12   N/A     0
DOMINION TERM VA 2000   77      CALM  /  1 1015.4F
KIPTOPEKE VA     2000      81  150/  6/  7   N/A
CHES BAY BRIDGE  2000   80 79  120/  8/ 12 1015.0F
CAPE HENRY VA    2000   78     130/  9/ 13   N/A
WILLOUBY STN VA  2000   78     110/  9/ 11   N/A
CAPE HENRY BUOY  2012      81                N/A     3/ 6
1ST LANDING BUOY 2100   80 82  170/ 16/ 17 1014.6F   2/ 3
CAPE CHARLES BUO 2026      78                N/A     2/ 6
OFFSHORE WE BUOY 2021      83                N/A     3/ 7
64NM E OF VA BCH 2050   82 83  160/ 10/ 10 1015.4R   3/ 6   2/ 6
DUCK PIER NC     2000   81 80  130/ 11/ 12 1014.9R
44100 DUCK FRF   2005      83                N/A     2/ 7
44056 DUCK FRF   2011      82                N/A     2/ 6
OREGON INLET NC  2000   81 79  130/  5/  7 1015.7R
HATTERAS NC      2000   85 83  160/  5/  9 1014.9R
DIAMOND SHLS NC  2050   85 85  180/ 14/ 16 1015.4R   2/ 6   2/ 6
CAPE LOOKOUT NC  2100   86     190/  7/ 10 1015.0R
$$



USA.gov is the U.S. government's official web portal to all federal, state and local government web resources and services.